RH
21 22 23 26 27 29 31 32 34 34 35 36 36 35 36 39 43 43 43 46 52 59 61 65 66 63 59 59 55 46 44 43
25 23 24 27 28 31 35 38 38 38 38 39 38 39 41 43 44 46 48 49 56 60 66 69 73 73 69 67 64 51 43 41
23 24 24 26 29 32 38 41 42 42 42 42 41 44 47 47 51 51 54 56 57 61 65 73 79 80 79 76 69 59 53 47
26 24 23 24 29 32 38 43 43 45 44 43 45 49 51 53 54 53 59 60 62 68 66 74 80 82 89 87 76 74 64 61
27 29 30 30 30 36 40 43 45 45 45 47 46 48 50 53 52 54 57 62 65 66 70 71 76 87 90 95 82 66 76 89
28 33 36 38 37 36 40 43 44 44 46 45 46 49 50 54 53 51 53 58 63 62 64 64 65 67 85 97 91 85 83 77
32 39 45 43 41 37 42 44 43 44 46 46 51 51 51 50 52 52 53 54 56 57 52 54 64 64 70 77 72 74 68 65
40 46 48 44 38 36 40 42 44 45 49 50 50 53 51 52 53 52 51 54 54 53 52 54 64 66 67 68 66 57 60 67
43 48 46 42 39 31 34 35 42 46 50 50 51 53 51 51 51 50 50 51 46 44 49 55 63 65 65 64 66 55 57 54
43 46 43 41 37 34 34 38 42 46 47 49 52 51 50 50 51 51 50 45 39 43 45 45 49 54 57 64 70 58 49 55
43 44 42 40 41 39 37 39 44 47 50 52 51 50 49 48 48 48 46 41 38 39 38 40 41 45 50 53 55 48 54 61
37 40 40 41 41 40 40 41 44 47 49 49 48 47 47 46 47 46 41 40 40 39 37 36 39 43 44 47 47 45 53 61
34 36 38 40 38 38 41 41 42 45 45 46 46 44 45 45 47 43 38 39 36 35 32 37 37 40 42 43 43 46 51 57
29 36 39 39 41 44 44 42 39 41 44 45 45 44 45 45 43 39 38 36 37 38 39 38 38 37 38 41 44 48 50 56
31 36 39 42 44 44 41 36 38 40 44 45 45 46 46 42 36 35 33 35 35 36 38 42 43 44 45 47 46 45 43 44
32 35 39 41 42 41 36 38 37 42 46 46 47 47 41 33 32 30 30 31 32 35 35 34 34 34 35 38 40 41 40 42
30 35 36 37 36 33 38 37 42 45 47 47 47 41 33 31 30 30 31 32 31 29 25 21 18 19 20 23 28 32 34 38
28 31 32 31 31 36 38 41 45 47 48 46 41 32 30 30 30 30 29 29 25 20 18 16 14 15 17 19 23 27 31 33
26 28 27 28 34 37 41 43 46 48 43 37 32 31 30 30 29 27 27 24 21 19 19 17 16 17 18 20 23 25 27 29
24 26 28 29 33 40 42 45 45 41 36 32 31 31 32 31 31 29 27 25 22 21 21 19 19 20 22 24 25 28 29 29